Regional Weather Roundup
Issued by NWS Northern Indiana

Home | Current Version | Previous Version | Graphics & Text | Print | Product List | Glossary On
Versions: 1 2 3 4 5 6 7 8 9 10 11 12 13 14 15 16 17 18 19 20 21 22 23 24 25 26 27 28 29 30 31 32 33 34 35 36 37 38 39 40 41 42 43 44 45 46 47 48 49 50
171
ASUS43 KIWX 210110
RWRIWX

KIWX WEATHER ROUNDUP
NATIONAL WEATHER SERVICE NORTHERN INDIANA
800 PM EST SAT JAN 20 2018

NOTE: "FAIR" INDICATES FEW OR NO CLOUDS BELOW 12,000 FEET WITH NO
SIGNIFICANT WEATHER AND/OR OBSTRUCTIONS TO VISIBILITY.

* THESE STATIONS ARE NOT UNDER NWS QUALITY CONTROL. THEY ALSO MAY NOT
  REPORT WEATHER SUCH AS PRECIPITATION OR FOG.

INZ001>027-210200-
NORTHERN INDIANA

CITY           SKY/WX    TMP DP  RH WIND       PRES   REMARKS
GARY*          CLOUDY    43  37  81 S6        30.01R
VALPARAISO     CLOUDY    39  35  86 S6        30.02R
MICHIGAN CITY* CLOUDY    37  36  93 S7        30.02R
LAPORTE*       CLOUDY    37  34  91 S5        30.02S
KNOX*          CLOUDY    36  34  93 S3        30.02S
SOUTH BEND     CLOUDY    37  34  89 SW8       30.02S
GOSHEN         CLOUDY    37  33  85 S8        30.03R
MONTICELLO*    CLOUDY    38  32  78 S6        30.03R
LOGANSPORT*    CLOUDY    36  32  87 S7        30.05R
ROCHESTER*     CLOUDY    39  36  87 SW5       30.05R
WARSAW*        CLOUDY    37  34  87 SW3       30.04R
AUBURN*        CLOUDY   N/A N/A N/A SW5       30.05R
FORT WAYNE     CLOUDY    38  35  89 SW6       30.06R
HUNTINGTON*    CLOUDY    38  34  84 SW5       30.05R
PERU/GRISSOM   CLOUDY    37  37 100 S10       30.04R
MARION*        CLOUDY    37  33  84 SW7       30.06S

$$
INZ028>050-210200-
CENTRAL INDIANA

CITY           SKY/WX    TMP DP  RH WIND       PRES   REMARKS
LAFAYETTE      CLOUDY    39  32  76 VRB5      30.04R
MUNCIE*        CLOUDY    42  33  70 SW7       30.06S
INDIANAPOLIS   CLOUDY    41  36  82 SW7       30.07S

$$
MIZ043>046-050>051-056>058-064>065-071>073-077>080-210200-
SOUTHWEST LOWER MICHIGAN

CITY           SKY/WX    TMP DP  RH WIND       PRES   REMARKS
BATTLE CREEK   FAIR      33  29  85 S7        30.01S WCI  27
BENTON HARBOR  MOCLDY    36  31  82 SE3       30.00S
COLDWATER*     MOCLDY    35  32  90 SW3       30.02S
HILLSDALE*     FAIR      32  30  93 S3        30.01S
HOLLAND        FAIR      33  28  81 S6        29.98F WCI  28
GRAND RAPIDS   FAIR      32  27  81 S6        29.99S WCI  26
KALAMAZOO      FAIR      36  29  75 S5        30.02R
STURGIS*       CLOUDY    37  34  90 SW6       30.01S
THREE RIVERS*  MOCLDY    36  32  87 SW3       30.02S

$$
OHZ001>008-015>018-024>025-210200-
NORTHWEST OHIO

CITY           SKY/WX    TMP DP  RH WIND       PRES   REMARKS
WAUSEON*         N/A     36  36 100 SW7       30.04R
DEFIANCE       CLOUDY    37  32  82 SW3       30.06R
FINDLAY        CLOUDY    39  32  76 SW9       30.05S
TOLEDO EXPRESS MOCLDY    38  34  85 SW6       30.04R
TOLEDO METCALF FAIR      35  30  82 SW7       30.06R WCI  29
LIMA           CLOUDY    39  32  76 S7        30.06R

$$
AND FOR LAKE MICHIGAN COASTAL AND OPEN LAKE BUOY OBSERVATIONS

STATION/POSITION TEMP    WIND        PRES    VSBY  WAVE
                 AIR SEA DIR/SP/G                  HT/PER
                 (F)     (DEG/KT/KT) (MB)    (MI)  (FT/S)
CALUMET HARBOR    42     200/  8/ 12 1015.2R
MICHIGAN CITY     41     170/ 10/ 13   N/A
BURNS HARBOR      41     180/  8/ 14 1016.6R
SAINT JOSEPH      38     140/  4/  6 1016.6

$$
&&




USA.gov is the U.S. government's official web portal to all federal, state and local government web resources and services.